Regional Weather Roundup
Issued by NWS

Home | Current Version | Previous Version | Text Only | Print | Product List | Glossary Off
Versions: 1 2 3 4 5 6 7 8 9 10 11 12 13 14 15 16 17 18 19 20 21 22 23 24 25 26 27 28 29 30 31 32 33 34 35 36 37 38 39 40 41 42 43 44 45 46 47 48 49 50

000
ASUS43 KIND 302359
RWRIN

WEATHER ROUNDUP FOR INDIANA
NATIONAL WEATHER SERVICE INDIANAPOLIS IN
800 PM EDT TUE SEP 30 2014

NOTE: "FAIR" INDICATES FEW OR NO CLOUDS BELOW 12,000 FEET WITH NO
SIGNIFICANT WEATHER AND/OR OBSTRUCTIONS TO VISIBILITY.

* - STATION DOES NOT REPORT WEATHER SUCH AS PRECIPITATION OR FOG.

+ - STATION NOT QUALITY CONTROLLED BY THE NATIONAL WEATHER SERVICE.
    USE DATA WITH CAUTION...ESPECIALLY DEWPOINT AND RELATIVE
    HUMIDITY OBSERVATIONS.

INZ001>003-010>013-019-020-010100-
NORTHWEST INDIANA

CITY           SKY/WX    TMP DP  RH WIND       PRES   REMARKS
GARY /AIRPORT/ CLOUDY    57  48  72 N9        30.01S
VALPARAISO     NOT AVBL

$$

LMZ046-743>745-010100-
SOUTHERN LAKE MICHIGAN

STATION/POSITION TIME  TEMP WIND        PRES
                       AIR  DIR/SP/G
                 (UTC) (F)  (DEG/KT/KT) (MB)
MICHIGAN CITY    2300   54   20/  8/ 11   N/A

$$

INZ004-005-014>016-021>024-010100-
NORTH CENTRAL INDIANA

CITY           SKY/WX    TMP DP  RH WIND       PRES   REMARKS
ELKHART        CLOUDY    54  45  71 E5        30.01S
SOUTH BEND     NOT AVBL
WARSAW +       CLOUDY    54  46  76 CALM      30.00S

$$

INZ006>009-017-018-025>027-010100-
NORTHEAST INDIANA

CITY           SKY/WX    TMP DP  RH WIND       PRES   REMARKS
ANGOLA *+      CLOUDY    55  48  76 N3        30.00S
FORT WAYNE     MOCLDY    52  48  86 N5        29.99F
6HR MIN TEMP:  52; 6HR MAX TEMP:  56;


$$

INZ028-029-035-036-043>045-051>053-010100-
WEST CENTRAL INDIANA

CITY           SKY/WX    TMP DP  RH WIND       PRES   REMARKS
GREENCASTLE +  CLOUDY    63  52  67 N6        29.95S
LAFAYETTE      MOCLDY    58  48  69 N8        29.97R
6HR MIN TEMP:  58; 6HR MAX TEMP:  69;

TERRE HAUTE    PTCLDY    66  55  67 N6        29.94R
6HR MIN TEMP:  66; 6HR MAX TEMP:  75;


$$

INZ030>032-037>040-046>048-054>057-064-065-010100-
CENTRAL INDIANA

CITY           SKY/WX    TMP DP  RH WIND       PRES   REMARKS
FRANKFORT +    MOCLDY    59  49  70 N6        29.98S
INDIANAPOLIS   MOCLDY    64  50  60 N6        29.94R
6HR MIN TEMP:  64; 6HR MAX TEMP:  71;

-EAGLE CREEK   MOCLDY    63  47  55 N8        29.95R
6HR MIN TEMP:  62; 6HR MAX TEMP:  71;

KOKOMO *+      CLEAR     54  45  71 E7        29.99R
MT COMFORT *+  PTCLDY    59  45  58 NE6       29.96S
SHELBYVILLE    PTCLDY    64  51  62 NE6       29.94R
6HR MIN TEMP:  64; 6HR MAX TEMP:  74;


$$

INZ033-034-041-042-049-050-058-059-010100-
EAST CENTRAL INDIANA

CITY           SKY/WX    TMP DP  RH WIND       PRES   REMARKS
MUNCIE         CLEAR     54  47  77 NE7       29.98R
6HR MIN TEMP:  54; 6HR MAX TEMP:  66;


$$

INZ060-061-067>069-081>083-085>088-010100-
SOUTHWEST INDIANA

CITY           SKY/WX    TMP DP  RH WIND       PRES   REMARKS
EVANSVILLE     CLEAR     75  59  57 CALM      29.90R
6HR MIN TEMP:  75; 6HR MAX TEMP:  86;


$$

INZ062-063-066-070>080-084-089>092-010100-
SOUTH CENTRAL AND SOUTHEAST INDIANA

CITY           SKY/WX    TMP DP  RH WIND       PRES   REMARKS
BLOOMINGTON    PTCLDY    65  56  72 N7        29.93R
6HR MIN TEMP:  65; 6HR MAX TEMP:  75;


$$




USA.gov is the U.S. government's official web portal to all federal, state and local government web resources and services.